{"data":{"norad_id":58214,"intl_designator":"2023-170J","name":"STARLINK-30805","alt_names":[],"object_type":"PAYLOAD","status":"ACTIVE","operator":null,"country":"US","launch_date":"2023-11-03","launch_site_code":"AFETR","launch_vehicle":null,"mission":null,"orbit_class":"UNKNOWN","rcs_meters":null,"size_class":null,"mass_kg":null,"dimensions":null,"purposes":["comms"],"wikipedia_slug":null,"has_3d_model":false,"image_url":null,"decayed_at":null,"tle_current":{"epoch":"2026-09-20T11:33:44.124480Z","epoch_age_seconds":145270,"freshness":"FRESH","line1":"1 58214U 23170J   26263.48176070  .00000096  00000+0  13012-4 0  9990","line2":"2 58214  43.0066 173.8628 0001933 255.4821 104.5816 15.27582948160091","mean_motion":15.27582948,"eccentricity":0.0001933,"inclination_deg":43.0066,"raan_deg":173.8628,"arg_perigee_deg":255.4821,"mean_anomaly_deg":104.5816,"bstar":1.3012e-5,"rev_number":16009,"period_min":94.266566793334,"perigee_km":481.71400311528,"apogee_km":484.36653424735,"semimajor_km":6861.1772686813,"source":"CELESTRAK","updated_at":"2026-09-21T09:00:33.832698Z"}}}